STARLINK-11512, 62517

Orbit data source: Space-Track

STARLINK-11512, 62517 is a payload satellite owned by SpaceX/Seattle (US) in LEO that was launched on Wed, 08 Jan 2025 UTC via an FALCON 9 launch vehicle from the Air Force Eastern Test Range (AFETR). Payload-class satellites include a variety of spacecraft equipped with specific instruments for various scientific and technological missions. These include communications satellites like Starlink; space stations such as the ISS; scientific satellites like the Hubble; Earth observation satellites from companies like Planet Labs, Umbra, and HawkEye 360; GPS; miniature CubeSats for education and research; and military/defense satellites.

Loading next visibility...
Identifier
62517, 2025-004G
Orbit
LEO
Country
Flag of USUS
Related business
Manufacturer
SpaceX/Seattle
Mission
Operational Commercial Communications
Bus & Motor
STARLINK V2MD, Unknown motor
Mass
960 kg wet, ~910 kg dry
Launch date (UTC)
2025-01-08 (1 year ago)
Launch vehicle
FALCON 9
Launch site
Air Force Eastern Test Range (AFETR)
Object type
Payload
Rocket body
Debris
Shape & HBR
Box + 2 Pan, 18.1 m
Radar Cross Section
36.964 m², Large (>1 m²)

Expand to show TLE details & history
Last TLE update: 8 hours ago

TLE from 8 hours ago
0 STARLINK-11512
1 62517U 25004G   26038.04666421  .00288500  00000-0  21678-2 0  9999
2 62517  43.0009 255.0309 0002721 236.7330 123.3277 15.70915005 62397
Epoch: 2026-02-07T01:07Z
TLE epoch observation values (Epoch: 2026-02-07T01:07:11.787Z)
Latitude
-0.00004°
Longitude
101.05594°
Altitude
357.059 km
Speed
7.696 km/s
True Right ascension
17h 00m 07s
True Declination
0° 00' 00"
Sunlit
Object was in daylight at epoch
Visualization orbit readout
Latitude
Unknown
Longitude
Unknown
Altitude
Unknown
Speed
Unknown
Apparent Right ascension
Unknown
Apparent Declination
Unknown
Sunlit
N/A
Visualization observer readout
Local Sidereal Time
11:31:11
Azimuth
Unknown
Elevation
Unknown
Doppler factor
Unknown
Orbital elements
Apogee altitude
360.095 km
Perigee altitude
356.429 km
Semi-major axis
6,736.399 km
Eccentricity
0.00027
Inclination
43.0009°
RAAN
255.0309°
Arg. of periapsis
236.733°
True anomaly
123.35375°
Mean anomaly
123.3277°
Eccentric anomaly
123.34072°
Mean motion
3.92556 °/min
Orbital period
91.71 mins
BSTAR
0.0021678
Loading maneuver chart data...
Computing Atmospheric mass density...
Loading historical data...
Loading historical data...
Loading historical data...
Loading historical data...
Loading historical data...
Loading historical data...
Loading historical data...

Documentation

Showing up to 5 results
|